Regional Weather Roundup
Issued by NWS Sterling, VA

Home | Current Version | Previous Version | Graphics & Text | Print | Product List | Glossary On
Versions: 1 2 3 4 5 6 7 8 9 10 11 12 13 14 15 16 17 18 19 20 21 22 23 24 25 26 27
000
ASUS41 KLWX 280911
RWRLWX

REGIONAL WEATHER ROUNDUP
NATIONAL WEATHER SERVICE BALTIMORE MD/WASHINGTON DC
500 AM EDT FRI APR 28 2017

Note: "FAIR" indicates few or no clouds below 12,000 feet
with no significant weather and/or obstructions to visibility.
 TC=TEMPERATURE CELSIUS

 * =Non NWS site. Station does not report precipitation (e.g. rain,
    snow, etc.), thunder, or fog.

DCZ001-MDZ009-015-VAZ040>042-051-053>054-281000-
WASHINGTON METRO

CITY           SKY/WX    TMP DP  RH WIND       PRES   REMARKS
WASHINGTON NAT PTCLDY    67  61  81 S6        29.91R
DULLES         CLEAR     60  57  89 S3        29.91R
ANDREWS AFB    CLEAR     64  59  85 SW5       29.91R
FT BELVOIR     CLEAR     67  59  77 CALM      29.91R
QUANTICO       MOCLDY    67  63  87 CALM      29.92R
COLLEGE PARK*  CLEAR     62  60  92 CALM      29.91R
LEESBURG*      CLEAR     61  59  94 CALM      29.93R
MANASSAS*        N/A     58  57  97 S5        29.93R FOG

$$

MDZ006>007-011-014-281000-
BALTIMORE METRO

CITY           SKY/WX    TMP DP  RH WIND       PRES   REMARKS
BWI AIRPORT    PTCLDY    64  61  90 SW5       29.89R
MD SCIENCE CTR   N/A     67  59  75 MISG      29.89R
MARTIN STATE   CLEAR     63  63 100 CALM      29.91R
ANNAPOLIS      CLEAR     64  61  90 CALM      29.89R
FORT MEADE*    CLEAR     57  55  94 CALM      29.93R

$$

MDZ012-015-019>023-281000-
MARYLAND EASTERN SHORE

CITY           SKY/WX    TMP DP  RH WIND       PRES   REMARKS
OCEAN CITY     CLOUDY    67  62  84 SW8       29.91S
SALISBURY      MOCLDY    69  64  84 SW8       29.92R
BAY BRIDGE AP* CLEAR     68  63  83 SW7       29.90R
CAMBRIDGE*       N/A     66  63  88 CALM      29.91R
EASTON*        PTCLDY    66  63  90 SW7       29.94R

$$

MDZ017>025-281000-
SOUTHERN MARYLAND

CITY           SKY/WX    TMP DP  RH WIND       PRES   REMARKS
PATUXENT RIVER CLOUDY    67  66  97 SW8       29.91R
ST INIGOES     PTCLDY    68  64  87 SW8       29.90S
LEONARDTOWN*   CLOUDY    64  63  94 SW7       29.93R

$$

MDZ003>005-281000-
NORTH CENTRAL MARYLAND

CITY           SKY/WX    TMP DP  RH WIND       PRES   REMARKS
FREDERICK*     CLEAR     63  63 100 CALM      29.94R
HAGERSTOWN APT PTCLDY    63  60  90 S6        29.92R
WESTMINSTER*   CLEAR     64  61  88 W6        29.92R

$$

MDZ501>502-281000-
WESTERN MARYLAND

CITY           SKY/WX    TMP DP  RH WIND       PRES   REMARKS
OAKLAND*       MOCLDY    50  50 100 W3        30.00R FOG
CUMBERLAND*    CLOUDY    59  59 100 CALM      29.99R VSB<1/4

$$

VAZ025>031-281000-
SHENANDOAH VALLEY

CITY           SKY/WX    TMP DP  RH WIND       PRES   REMARKS
WINCHESTER*    CLEAR     61  57  88 SW5       29.93R
FRONT ROYAL*   CLEAR     61  59  94 S6        29.92R
LURAY*         CLEAR     59  59 100 SW3       29.95R FOG
NEW MARKET*      N/A     55  55  97 CALM      29.95R
STAUNTON*      MOCLDY    50  49  99 CALM      29.98R FOG
WAYNESBORO*    CLEAR     54  54 100 CALM      29.97R

$$

WVZ021-048>050-054>055-281000-
EASTERN WEST VIRGINIA PANHANDLE

CITY           SKY/WX    TMP DP  RH WIND       PRES   REMARKS
MARTINSBURG    CLEAR     59  57  93 SW5       29.91R
PETERSBURG*    FOG       57  57  99 CALM      29.97R VSB<1/4

$$

VAZ036>039-050-281000-
CENTRAL FOOTHILLS

CITY           SKY/WX    TMP DP  RH WIND       PRES   REMARKS
CHARLOTTESVILL CLEAR     63  61  93 SW3       29.93R
CULPEPER*        N/A     59  59 100 CALM      29.94R FOG
ORANGE*        CLEAR     57  57 100 CALM      29.93R
GORDONSVILLE*  CLEAR     60  60  99 CALM      29.93R
WARRENTON*     CLEAR     61  58  90 CALM      29.92R

$$

VAZ055>057-281000-
NORTH AND CENTRAL PIEDMONT

CITY           SKY/WX    TMP DP  RH WIND       PRES   REMARKS
FREDERICKSBRG* PTCLDY    68  65  92 W3        29.90S
STAFFORD*      PTCLDY    64  63  96 CALM      29.96R

$$

NCZ024-NYZ072-PAZ021-071-VAZ022-071-281000-
OTHER REGIONAL OBSERVATIONS

CITY           SKY/WX    TMP DP  RH WIND       PRES   REMARKS
NEW YORK CITY  FOG       58  57  97 CALM      29.92R VSB 1
PHILADELPHIA   MOCLDY    65  62  90 S6        29.89R
PITTSBURGH     PTCLDY    51  48  89 W3        29.96R
ROANOKE        CLEAR     57  57 100 CALM      29.99R FOG
RICHMOND       CLOUDY    67  66  97 S5        29.93R
RALEIGH        CLOUDY    71  66  84 SW7       29.97R

$$

ANZ530>537-281000-
MARINE OBSERVATIONS

STATION/POSITION TIME  TEMP    WIND        PRES
                       AIR SEA DIR/SP/G
                 (UTC) (F)     (DEG/KT/KT) (MB)
THOMAS PT LIGHT  0900   66 59  230/  7/  7   N/A
BALT KEY BRIDGE  0848   68     280/  3/  4 1012.2R
COVE POINT       0848   68     260/ 14/ 19 1013.0R
LEWISETTA        0848   69 65  220/ 10/ 11 1012.5R
SOLOMONS ISLAND  0842   65 61  220/ 10/ 12   N/A
PINEY POINT      0848          280/  3/  4   N/A

$$





USA.gov is the U.S. government's official web portal to all federal, state and local government web resources and services.